This demonstration page uses our WeatherBlox Daily Observations layout. Learn more.

Left ArrowRight Arrow

39.51506, -84.39828

Hourly Observations for April 2, 2017

Temp ( °F °C ) Dew Point ( °F °C ) Humidity (%) Winds ( mph kmh ) Pressure ( in mb ) Visibility ( mi km ) Precip ( " mm )
12:15 am 00:15 Clear 37 2.8 32 0.1 83 83 Calm 30.30 1026 7 11 0.00 0.00
12:35 am 00:35 Clear 37 2.6 32 0 83 83 Calm 30.30 1026 7 11 0.00 0.00
12:55 am 00:55 Hazy 38 3.1 33 0.5 83 83 Calm 30.30 1026 5 8 0.00 0.00
1:15 am 01:15 Clear 37 2.6 32 0 83 83 Calm 30.30 1026 7 11 0.00 0.00
1:35 am 01:35 Clear 37 2.6 32 0.1 84 84 Calm 30.30 1026 10 16 0.00 0.00
1:55 am 01:55 Clear 37 2.6 32 0 83 83 Calm 30.27 1025 10 16 0.00 0.00
2:15 am 02:15 Clear 37 2.6 32 0 83 83 Calm 30.27 1025 7 11 0.00 0.00
2:35 am 02:35 Clear 37 2.6 32 0 83 83 Calm 30.27 1025 7 11 0.00 0.00
2:55 am 02:55 Clear 37 2.6 32 0.1 84 84 Calm 30.27 1025 7 11 0.00 0.00
3:15 am 03:15 Clear 37 2.6 32 0.1 84 84 Calm 30.27 1025 7 11 0.00 0.00
3:35 am 03:35 Clear 36 2.1 31 -0.3 84 84 Calm 30.27 1025 7 11 0.00 0.00
3:55 am 03:55 Clear 35 1.5 31 -0.6 86 86 Calm 30.27 1025 7 11 0.00 0.00
4:15 am 04:15 Clear with Mist and Fog 35 1.6 31 -0.6 85 85 Calm 30.27 1025 5 8 0.00 0.00
4:35 am 04:35 Clear 34 1.2 30 -1 85 85 Calm 30.27 1025 7 11 0.00 0.00
4:55 am 04:55 Clear 34 1.2 30 -1 85 85 Calm 30.27 1025 7 11 0.00 0.00
5:15 am 05:15 Clear with Mist and Fog 34 1.2 30 -1 85 85 Calm 30.27 1025 5 8 0.00 0.00
5:35 am 05:35 Mostly Cloudy with Mist and Fog 35 1.6 31 -0.5 86 86 Calm 30.27 1025 1 2 0.00 0.00
5:55 am 05:55 Partly Cloudy with Mist and Fog 34 1.2 30 -1 85 85 Calm 30.27 1025 5 8 0.00 0.00
6:15 am 06:15 Partly Cloudy with Mist and Fog 34 1.2 30 -1 85 85 Calm 30.27 1025 4 6 0.00 0.00
6:35 am 06:35 Clear with Mist and Fog 34 1.2 30 -1 85 85 Calm 30.27 1025 4 6 0.00 0.00
6:55 am 06:55 Clear with Mist and Fog 36 2.1 32 0 86 86 Calm 30.30 1026 5 8 0.00 0.00
7:15 am 07:15 Clear with Mist and Fog 34 1.2 30 -1 85 85 Calm 30.30 1026 4 6 0.00 0.00
7:35 am 07:35 Sunny with Mist and Fog 34 1.2 30 -1 85 85 N 3 6 30.27 1025 4 6 0.00 0.00
7:55 am 07:55 Sunny with Mist and Fog 37 2.6 33 0.3 85 85 Calm 30.27 1025 4 6 0.00 0.00
8:15 am 08:15 Sunny with Mist and Fog 37 2.6 33 0.3 85 85 Calm 30.27 1025 3 5 0.00 0.00
8:35 am 08:35 Sunny with Mist and Fog 39 4 35 1.7 85 85 N 5 7 30.27 1025 5 8 0.00 0.00
8:55 am 08:55 Sunny 39 4 35 1.5 84 84 NE 3 6 30.27 1025 7 11 0.00 0.00
9:15 am 09:15 Sunny 40 4.7 36 2 83 83 NE 3 6 30.24 1024 7 11 0.00 0.00
9:35 am 09:35 Sunny 42 5.8 37 2.7 81 81 W 5 7 30.24 1024 10 16 0.00 0.00
9:55 am 09:55 Sunny 45 7.3 38 3.5 77 77 Calm 30.27 1025 10 16 0.00 0.00
10:15 am 10:15 Sunny 49 9.6 40 4.2 69 69 Calm 30.24 1024 10 16 0.00 0.00
10:35 am 10:35 Sunny 49 9.6 38 3.3 65 65 Calm 30.27 1025 10 16 0.00 0.00
10:55 am 10:55 Sunny 49 9.6 38 3.2 65 65 Calm 30.24 1024 10 16 0.00 0.00
11:15 am 11:15 Sunny 51 10.7 39 3.8 63 63 NE 3 6 30.24 1024 10 16 0.00 0.00
11:35 am 11:35 Sunny 55 12.5 38 3.3 54 54 NE 7 11 30.24 1024 10 16 0.00 0.00
11:55 am 11:55 Sunny 55 12.5 31 -0.5 41 41 E 12 19 30.24 1024 10 16 0.00 0.00
12:15 pm 12:15 Sunny 55 12.6 32 0.2 43 43 E 7 11 30.24 1024 10 16 0.00 0.00
12:35 pm 12:35 Sunny 57 13.8 33 0.6 41 41 E 8 13 30.21 1023 10 16 0.00 0.00
12:55 pm 12:55 Sunny 57 13.8 31 -0.4 38 38 E 7 11 30.21 1023 10 16 0.00 0.00
1:15 pm 13:15 Sunny 58 14.5 30 -1.3 34 34 E 7 11 30.21 1023 10 16 0.00 0.00
1:35 pm 13:35 Sunny 60 15.3 31 -0.5 34 34 ESE 8 13 30.18 1022 10 16 0.00 0.00
1:55 pm 13:55 Sunny 60 15.3 29 -1.4 32 32 E 10 17 30.18 1022 10 16 0.00 0.00
2:15 pm 14:15 Sunny 60 15.6 28 -2.2 30 30 ENE 7 11 30.15 1021 10 16 0.00 0.00
2:35 pm 14:35 Sunny 61 16 25 -3.7 26 26 E 8 13 30.15 1021 10 16 0.00 0.00
2:55 pm 14:55 Sunny 61 16.1 27 -2.9 27 27 E 6 9 30.12 1020 10 16 0.00 0.00
3:15 pm 15:15 Sunny 62 16.6 27 -3 26 26 NE 5 7 30.09 1019 10 16 0.00 0.00
3:35 pm 15:35 Sunny 63 17.2 27 -2.9 25 25 ESE 5 7 30.09 1019 10 16 0.00 0.00
3:55 pm 15:55 Sunny 64 17.8 26 -3.4 23 23 SE 8 13 30.09 1019 10 16 0.00 0.00
4:15 pm 16:15 Sunny 64 17.5 27 -2.7 25 25 E 8 13 30.06 1018 10 16 0.00 0.00
4:35 pm 16:35 Sunny 64 18 27 -2.7 24 24 E 8 13 30.03 1017 10 16 0.00 0.00
4:55 pm 16:55 Sunny 64 18 24 -4.7 21 21 ESE 9 15 30.03 1017 10 16 0.00 0.00
5:15 pm 17:15 Sunny 64 17.9 23 -4.8 21 21 ESE 7 11 30.03 1017 10 16 0.00 0.00
5:35 pm 17:35 Sunny 66 18.8 25 -3.7 22 22 ESE 8 13 30.03 1017 10 16 0.00 0.00
5:55 pm 17:55 Sunny 64 18 20 -6.7 18 18 ESE 7 11 30.03 1017 10 16 0.00 0.00
6:15 pm 18:15 Sunny 64 18 22 -5.8 19 19 ESE 7 11 30.00 1016 10 16 0.00 0.00
6:35 pm 18:35 Sunny 64 17.5 22 -5.8 20 20 E 10 17 30.00 1016 10 16 0.00 0.00
6:55 pm 18:55 Sunny 63 17.2 24 -4.5 22 22 ESE 8 13 30.00 1016 10 16 0.00 0.00
7:15 pm 19:15 Sunny 62 16.9 24 -4.2 23 23 E 6 9 30.00 1016 10 16 0.00 0.00
7:35 pm 19:35 Sunny 61 16 29 -1.6 30 30 E 5 7 30.00 1016 10 16 0.00 0.00
7:55 pm 19:55 Sunny 60 15.3 31 -0.5 34 34 ENE 6 9 29.97 1015 10 16 0.00 0.00
8:15 pm 20:15 Clear 57 13.8 32 0 39 39 ENE 6 9 30.00 1016 10 16 0.00 0.00
8:35 pm 20:35 Clear 59 15.2 32 0 36 36 ENE 3 6 29.97 1015 10 16 0.00 0.00
8:55 pm 20:55 Clear 56 13.6 33 0.7 42 42 ENE 5 7 30.00 1016 10 16 0.00 0.00
9:15 pm 21:15 Clear 55 12.5 40 4.7 59 59 ENE 5 7 30.00 1016 10 16 0.00 0.00
9:35 pm 21:35 Clear 52 11.1 43 6.3 73 73 NE 5 7 30.00 1016 10 16 0.00 0.00
9:55 pm 21:55 Clear 50 10 40 4.7 70 70 Calm 30.00 1016 10 16 0.00 0.00
10:15 pm 22:15 Clear 49 9.6 39 3.9 68 68 N 5 7 29.97 1015 10 16 0.00 0.00
10:35 pm 22:35 Clear 49 9.6 39 3.9 68 68 Calm 30.00 1016 10 16 0.00 0.00
10:55 pm 22:55 Clear 50 9.8 40 4.2 68 68 N 5 7 29.97 1015 10 16 0.00 0.00
11:15 pm 23:15 Clear 50 9.8 39 3.8 67 67 N 3 6 29.97 1015 10 16 0.00 0.00
11:35 pm 23:35 Clear 50 9.8 38 3.2 64 64 N 6 9 29.97 1015 10 16 0.00 0.00
11:55 pm 23:55 Clear 51 10.8 38 3.2 60 60 N 3 6 29.94 1014 10 16 0.00 0.00

Powered by AerisWeather